Content
SEND FEEDBACK

Daily
Averages
Monthly
Summary
Canada

VANCOUVER, BRITISH COLUMBIA


Home > North America > Canada > British Columbia
Elevation: 7 feet     Latitude: 49 11N     Longitude: 123 10W

WEATHER
 
SELECT A DAY
Number of Records: 254,841;   Date Range: 5/15/97 - 12/17/14
 
SHARE

PRINT THIS DATA

[ ← Previous Day ]
WEATHER ALMANAC - DECEMBER 31, 2012
[ Next Day → ]
[ °C ]   °F
Weather ElementAverageHighLow
Temperature35.8 °F39.2 °F (5:55 pm)32 °F (12:35 am)
Dewpoint34 °F37.4 °F (11:55 pm)32 °F (12:35 am)
Humidity93.2 %100 % (12:35 am)87 % (6:15 am)
Barometer30.33 in30.45 in (11:55 pm)30.25 in (5:15 am)
Wind Speed1.9 mph10.4 mph (6:15 pm)
Weather ElementAverage
Visibility8.5 mi
Wind DirectionENE (51.5 °)

Weather ElementTotal
Precipitation---
Heating Degree Days29.4 (Base 65)
Averaged from 65 records on December 31, 2012
WEATHER CONDITIONS BREAKOUT
WIND DIRECTION BREAKOUT
WEATHER BY HOUR - DECEMBER 31, 2012
[ °C ]   °F
Local TimeTemperatureDewpointHumidityBarometerVisibilityWind DirectionWind SpeedGust SpeedPrecipitationEventsConditions
12:35 AM32.0 °F32.0 °F100 %30.28 in5.0 miCalmClear
12:55 AM32.0 °F32.0 °F100 %30.28 in6.0 miCalmClear
1:15 AM33.8 °F33.8 °F100 %30.28 in5.0 miCalmClear
1:35 AM32.0 °F32.0 °F100 %30.28 in4.0 miCalmClear
1:55 AM32.0 °F32.0 °F100 %30.28 in4.0 miCalmClear
2:15 AM33.8 °F33.8 °F100 %30.28 in5.0 miCalmClear
2:35 AM32.0 °F32.0 °F100 %30.28 in4.0 miCalmScattered Clouds
3:15 AM32.0 °F32.0 °F100 %30.28 in5.0 miNorthClear
3:55 AM32.0 °F32.0 °F100 %30.27 in8.0 miCalmClear
4:15 AM33.8 °F33.8 °F100 %30.27 in7.0 miCalmClear
4:55 AM32.0 °F32.0 °F100 %30.26 in8.0 miCalmClear
5:15 AM33.8 °F33.8 °F100 %30.25 in8.0 miCalmClear
5:35 AM32.0 °F32.0 °F100 %30.25 in5.0 miCalmClear
6:15 AM35.6 °F32.0 °F87 %30.25 in10.0 miNorthMostly Cloudy
6:35 AM33.8 °F32.0 °F93 %30.26 in10.0 miCalmMostly Cloudy
6:55 AM35.6 °F33.8 °F93 %30.26 in10.0 miCalmMostly Cloudy
7:15 AM33.8 °F33.8 °F100 %30.26 in10.0 miCalmOvercast
7:35 AM33.8 °F33.8 °F100 %30.26 in10.0 miCalmOvercast
7:55 AM35.6 °F33.8 °F93 %30.27 in10.0 miCalmOvercast
8:15 AM35.6 °F33.8 °F93 %30.27 in10.0 miCalmMostly Cloudy
8:35 AM35.6 °F33.8 °F93 %30.28 in8.0 miCalmScattered Clouds
8:55 AM35.6 °F33.8 °F93 %30.28 in10.0 miCalmScattered Clouds
9:15 AM35.6 °F32.0 °F87 %30.29 in10.0 miCalmMostly Cloudy
9:35 AM35.6 °F32.0 °F87 %30.30 in10.0 miCalmMostly Cloudy
9:55 AM35.6 °F32.0 °F87 %30.30 in10.0 miCalmMostly Cloudy
10:15 AM35.6 °F33.8 °F93 %30.32 in10.0 miCalmRainLight Rain
10:55 AM35.6 °F32.0 °F87 %30.33 in5.0 miCalmRainLight Rain
11:15 AM35.6 °F32.0 °F87 %30.34 in4.0 miCalmRainRain
11:35 AM35.6 °F32.0 °F87 %30.33 in7.0 miCalmRainLight Rain
11:55 AM35.6 °F33.8 °F93 %30.33 in7.0 miNNE (20°)4.6 mphRainLight Rain
12:15 PM35.6 °F33.8 °F93 %30.33 in7.0 miNNE (30°)5.8 mphRainLight Rain
12:35 PM35.6 °F33.8 °F93 %30.33 in5.0 miNE (40°)4.6 mphRainLight Rain
12:55 PM35.6 °F33.8 °F93 %30.33 in8.0 miNE (40°)4.6 mphRainLight Rain
1:15 PM35.6 °F33.8 °F93 %30.32 in10.0 miENE (60°)5.8 mphOvercast
1:35 PM35.6 °F33.8 °F93 %30.32 in10.0 miNE (50°)4.6 mphMostly Cloudy
1:55 PM35.6 °F33.8 °F93 %30.32 in10.0 miNE (40°)4.6 mphOvercast
2:15 PM37.4 °F35.6 °F93 %30.33 in10.0 miCalmOvercast
2:35 PM37.4 °F35.6 °F93 %30.33 in10.0 miNNE (30°)3.5 mphOvercast
3:15 PM37.4 °F35.6 °F93 %30.34 in10.0 miNNE (20°)3.5 mphOvercast
3:35 PM37.4 °F35.6 °F93 %30.35 in10.0 miNNE (30°)3.5 mphOvercast
3:55 PM37.4 °F35.6 °F93 %30.35 in10.0 miNorth (350°)5.8 mphOvercast
4:15 PM37.4 °F35.6 °F93 %30.36 in10.0 miNorth (350°)5.8 mphOvercast
4:35 PM37.4 °F33.8 °F87 %30.36 in10.0 miNNE (30°)3.5 mphOvercast
4:55 PM37.4 °F35.6 °F93 %30.36 in10.0 miNorth (360°)3.5 mphOvercast
5:15 PM37.4 °F33.8 °F87 %30.36 in10.0 miNNE (20°)4.6 mphOvercast
5:35 PM37.4 °F33.8 °F87 %30.37 in10.0 miNorth (10°)3.5 mphOvercast
5:55 PM39.2 °F35.6 °F87 %30.36 in10.0 miNorth (360°)6.9 mphOvercast
6:15 PM39.2 °F35.6 °F87 %30.37 in10.0 miNorth (350°)10.4 mphOvercast
6:35 PM39.2 °F35.6 °F87 %30.38 in10.0 miNNW (340°)6.9 mphOvercast
6:55 PM37.4 °F35.6 °F93 %30.38 in10.0 miNorth (10°)3.5 mphMostly Cloudy
7:15 PM37.4 °F35.6 °F93 %30.39 in10.0 miNorth (360°)4.6 mphMostly Cloudy
7:35 PM39.2 °F35.6 °F87 %30.39 in10.0 miNE (50°)3.5 mphMostly Cloudy
7:55 PM37.4 °F35.6 °F93 %30.39 in5.0 miNNE (20°)3.5 mphMostly Cloudy
8:15 PM39.2 °F35.6 °F87 %30.40 in10.0 miNorth (360°)6.9 mphOvercast
8:35 PM39.2 °F35.6 °F87 %30.40 in10.0 miNNE (20°)4.6 mphOvercast
8:55 PM37.4 °F33.8 °F87 %30.40 in10.0 miCalmMostly Cloudy
9:15 PM37.4 °F35.6 °F93 %30.40 in9.0 miCalmMostly Cloudy
9:35 PM35.6 °F33.8 °F93 %30.41 in9.0 miCalmMostly Cloudy
9:55 PM37.4 °F35.6 °F93 %30.42 in10.0 miCalmOvercast
10:15 PM37.4 °F35.6 °F93 %30.42 in10.0 miCalmOvercast
10:35 PM37.4 °F35.6 °F93 %30.43 in10.0 miCalmOvercast
10:55 PM37.4 °F35.6 °F93 %30.44 in10.0 miCalmOvercast
11:15 PM37.4 °F35.6 °F93 %30.44 in10.0 miCalmOvercast
11:35 PM37.4 °F35.6 °F93 %30.44 in8.0 miCalmOvercast
11:55 PM37.4 °F37.4 °F100 %30.45 in7.0 miCalmOvercast
Hourly data recorded from CZBB, located miles away from Vancouver, British Columbia







STORIES FROM OUR PARTNERS